Date String (YYYY-MM-DD hh:mm:ss) UTC,Instrument flags,absolute air pressure of the measurement (hPa),sample flow rate (lpm),inlet stack bypass flow (lpm),air temperature of the measurement (°C),ambient temperature measured by the external sensor (°C),aerosol sample conditioner tube jacket temperature (°C),OPC LED temperature (°C),internal box temperature (°C),relative humidity of the measurement (%),span deviation,mass concentration of particles derived from Lorenz-Mie calculation of OPC scattering (μg/m³),mass concentration of particles derived from Lorenz-Mie calculation of OPC scattering (μg/m³),mass concentration of particles derived from Lorenz-Mie calculation of OPC scattering (μg/m³)
DateTimeUTC,F1_M11,P_M11,Q1_M11,Q2_M11,T1_M11,T2_M11,T3_M11,T4_M11,T5_M11,U1_M11,ZSPAN_M11,X2_M11,X0_M11,X1_M11
2023-09-13 00:00:00,SystemResetWarning,0831.5,5.01,000.00,028.1,026.8,000.0,036.3,029.8,22.9,0001.2,0005.01,0009.91,0004.65
2023-09-13 00:01:00,SystemResetWarning,0831.5,5.00,000.00,028.2,027.0,000.0,036.4,029.9,22.8,0001.4,0005.01,0009.86,0004.64
2023-09-13 00:02:00,SystemResetWarning,0831.6,5.00,000.00,028.2,027.2,000.0,036.4,030.0,22.4,0001.5,0005.01,0009.91,0004.64
2023-09-13 00:03:00,SystemResetWarning,0831.6,5.00,000.00,028.3,027.3,000.0,036.4,030.1,22.3,0001.4,0005.04,0009.83,0004.65
2023-09-13 00:04:00,SystemResetWarning,0831.5,4.98,000.00,028.3,026.0,000.0,036.4,029.8,22.0,0001.4,0005.07,0009.34,0004.66
2023-09-13 00:05:00,SystemResetWarning,0831.5,5.00,000.00,028.2,024.4,000.0,036.3,029.4,22.3,0000.7,0005.08,0009.64,0004.68
2023-09-13 00:06:00,SystemResetWarning,0831.5,5.00,000.00,028.1,024.2,000.0,036.2,029.4,22.6,0000.4,0005.10,0009.72,0004.70
2023-09-13 00:07:00,SystemResetWarning,0831.6,5.01,000.00,028.0,024.4,000.0,036.2,029.3,22.2,0000.7,0005.17,0009.72,0004.73
2023-09-13 00:08:00,SystemResetWarning,0831.5,5.00,000.00,027.9,024.9,000.0,036.3,029.4,22.0,0000.4,0005.20,0009.36,0004.76
2023-09-13 00:09:00,SystemResetWarning,0831.6,5.00,000.00,027.9,025.3,000.0,036.3,029.5,22.2,0000.3,0005.22,0009.46,0004.77
2023-09-13 00:10:00,SystemResetWarning,0831.6,5.01,000.00,028.0,025.8,000.0,036.3,029.6,22.7,-000.1,0005.25,0009.70,0004.78
2023-09-13 00:11:00,SystemResetWarning,0831.6,5.00,000.00,028.0,026.1,000.0,036.3,029.6,23.0,-000.3,0005.25,0009.84,0004.78
2023-09-13 00:12:00,SystemResetWarning,0831.6,4.99,000.00,028.1,026.5,000.0,036.3,029.8,22.8,-000.4,0005.25,0010.03,0004.78
2023-09-13 00:13:00,SystemResetWarning,0831.6,5.00,000.00,028.1,026.8,000.0,036.3,029.8,22.9,-000.5,0005.25,0009.96,0004.78
2023-09-13 00:14:00,SystemResetWarning,0831.6,5.00,000.00,028.2,027.0,000.0,036.4,029.9,23.4,-000.1,0005.24,0009.95,0004.77
2023-09-13 00:15:00,SystemResetWarning,0831.6,5.00,000.00,028.2,027.2,000.0,036.4,030.0,24.0,-000.1,0005.22,0009.81,0004.76
2023-09-13 00:16:00,SystemResetWarning,0831.6,4.99,000.00,028.3,027.1,000.0,036.4,030.0,23.2,0000.6,0005.19,0009.44,0004.75
2023-09-13 00:17:00,SystemResetWarning,0831.6,4.98,000.00,028.2,025.6,000.0,036.3,029.7,23.1,0000.8,0005.16,0008.93,0004.73
2023-09-13 00:18:00,SystemResetWarning,0831.6,5.01,000.00,028.1,024.3,000.0,036.3,029.4,23.0,0000.5,0005.12,0008.70,0004.71
2023-09-13 00:19:00,SystemResetWarning,0831.6,5.01,000.00,028.1,024.2,000.0,036.2,029.4,23.9,0000.1,0005.14,0008.78,0004.72
2023-09-13 00:20:00,SystemResetWarning,0831.6,5.01,000.00,028.0,024.5,000.0,036.2,029.3,23.1,0000.3,0005.13,0008.75,0004.72
2023-09-13 00:21:00,SystemResetWarning,0831.6,4.99,000.00,027.9,025.0,000.0,036.2,029.4,23.5,0000.0,0005.13,0008.65,0004.72
2023-09-13 00:22:00,SystemResetWarning,0831.6,5.00,000.00,027.9,025.4,000.0,036.3,029.5,23.9,-000.3,0005.12,0008.53,0004.71
2023-09-13 00:23:00,SystemResetWarning,0831.5,5.00,000.00,028.0,025.8,000.0,036.3,029.6,23.8,-000.4,0005.08,0008.27,0004.71
2023-09-13 00:24:00,SystemResetWarning,0831.6,5.01,000.00,028.0,026.2,000.0,036.3,029.7,23.6,-000.7,0005.05,0008.20,0004.71
2023-09-13 00:25:00,SystemResetWarning,0831.5,5.00,000.00,028.1,026.5,000.0,036.3,029.8,23.5,-001.6,0005.09,0008.26,0004.71
2023-09-13 00:26:00,SystemResetWarning,0831.6,5.00,000.00,028.1,026.8,000.0,036.3,029.8,23.3,-001.6,0005.11,0008.37,0004.72
2023-09-13 00:27:00,SystemResetWarning,0831.6,5.00,000.00,028.2,027.0,000.0,036.4,029.9,23.4,-001.6,0005.11,0008.50,0004.72
2023-09-13 00:28:00,SystemResetWarning,0831.6,5.00,000.00,028.2,027.2,000.0,036.4,030.0,23.8,-001.4,0005.14,0008.74,0004.73
2023-09-13 00:29:00,SystemResetWarning,0831.6,5.00,000.00,028.3,027.3,000.0,036.4,030.1,23.8,-001.3,0005.15,0008.75,0004.74
2023-09-13 00:30:00,SystemResetWarning,0831.6,4.99,000.00,028.3,026.2,000.0,036.4,029.9,23.9,-000.8,0005.13,0008.68,0004.73
2023-09-13 00:31:00,SystemResetWarning,0831.5,5.00,000.00,028.2,024.6,000.0,036.3,029.5,24.3,-000.7,0005.14,0008.70,0004.74
2023-09-13 00:32:00,SystemResetWarning,0831.5,5.01,000.00,028.1,024.1,000.0,036.3,029.4,24.4,-000.4,0005.15,0008.69,0004.74
2023-09-13 00:33:00,SystemResetWarning,0831.5,5.01,000.00,028.0,024.3,000.0,036.3,029.3,24.8,-000.2,0005.17,0008.75,0004.75
2023-09-13 00:34:00,SystemResetWarning,0831.6,5.01,000.00,027.9,024.7,000.0,036.3,029.3,24.9,-000.1,0005.21,0009.28,0004.75
2023-09-13 00:35:00,SystemResetWarning,0831.5,5.00,000.00,027.9,025.2,000.0,036.3,029.4,25.3,-000.3,0005.25,0010.08,0004.75
2023-09-13 00:36:00,SystemResetWarning,0831.6,4.99,000.00,028.0,025.6,000.0,036.3,029.5,24.9,-000.1,0005.24,0010.20,0004.74
2023-09-13 00:37:00,SystemResetWarning,0831.5,5.00,000.00,028.0,026.0,000.0,036.3,029.6,24.4,0000.3,0005.24,0010.42,0004.74
2023-09-13 00:38:00,SystemResetWarning,0831.5,5.01,000.00,028.0,026.4,000.0,036.3,029.7,24.1,-000.5,0005.25,0010.68,0004.73
2023-09-13 00:39:00,SystemResetWarning,0831.5,5.00,000.00,028.1,026.7,000.0,036.3,029.8,24.2,-000.9,0005.21,0010.80,0004.72
2023-09-13 00:40:00,SystemResetWarning,0831.6,4.99,000.00,028.1,026.9,000.0,036.3,029.9,23.8,-000.8,0005.23,0011.42,0004.72
2023-09-13 00:41:00,SystemResetWarning,0831.6,4.99,000.00,028.2,027.1,000.0,036.4,029.9,23.3,-000.5,0005.23,0011.45,0004.71
2023-09-13 00:42:00,SystemResetWarning,0831.6,5.00,000.00,028.2,027.3,000.0,036.4,030.0,23.4,-000.3,0005.24,0011.55,0004.70
2023-09-13 00:43:00,SystemResetWarning,0831.6,5.02,000.00,028.3,027.3,000.0,036.4,030.1,23.4,0000.0,0005.24,0011.69,0004.70
2023-09-13 00:44:00,SystemResetWarning,0831.6,4.99,000.00,028.3,025.9,000.0,036.4,029.8,23.5,-000.1,0005.22,0011.75,0004.67
2023-09-13 00:45:00,SystemResetWarning,0831.5,4.99,000.00,028.2,024.4,000.0,036.3,029.5,23.6,-000.2,0005.22,0011.80,0004.66
2023-09-13 00:46:00,SystemResetWarning,0831.5,5.01,000.00,028.1,024.0,000.0,036.2,029.4,23.8,0000.1,0005.21,0011.53,0004.65
2023-09-13 00:47:00,SystemResetWarning,0831.6,5.01,000.00,028.0,024.3,000.0,036.2,029.2,23.9,0000.6,0005.16,0011.71,0004.64
2023-09-13 00:48:00,SystemResetWarning,0831.5,5.00,000.00,027.9,024.7,000.0,036.3,029.3,23.6,0000.7,0005.11,0011.40,0004.62
2023-09-13 00:49:00,SystemResetWarning,0831.5,5.00,000.00,027.9,025.2,000.0,036.3,029.4,23.5,0000.9,0005.09,0011.16,0004.60
2023-09-13 00:50:00,SystemResetWarning,0831.5,5.00,000.00,027.9,025.6,000.0,036.3,029.5,23.5,0001.0,0005.08,0010.83,0004.58
2023-09-13 00:51:00,SystemResetWarning,0831.5,5.00,000.00,028.0,026.0,000.0,036.3,029.6,23.6,0001.0,0005.07,0010.20,0004.58
2023-09-13 00:52:00,SystemResetWarning,0831.5,5.00,000.00,028.0,026.3,000.0,036.3,029.7,23.8,0000.5,0005.07,0010.17,0004.60
2023-09-13 00:53:00,SystemResetWarning,0831.5,5.00,000.00,028.1,026.6,000.0,036.3,029.7,23.9,0000.7,0005.06,0010.07,0004.61
2023-09-13 00:54:00,SystemResetWarning,0831.6,5.00,000.00,028.1,026.9,000.0,036.4,029.8,23.8,0000.8,0005.06,0009.89,0004.61
2023-09-13 00:55:00,SystemResetWarning,0831.5,5.01,000.00,028.2,027.1,000.0,036.4,029.9,23.5,0000.6,0005.08,0009.86,0004.64
2023-09-13 00:56:00,SystemResetWarning,0831.6,5.00,000.00,028.2,027.3,000.0,036.4,030.0,23.7,0000.7,0005.09,0009.57,0004.67
2023-09-13 00:57:00,SystemResetWarning,0831.6,5.00,000.00,028.3,027.4,000.0,036.5,030.0,23.6,0000.8,0005.10,0009.07,0004.69
2023-09-13 00:58:00,SystemResetWarning,0831.5,4.99,000.00,028.3,026.6,000.0,036.4,030.0,23.6,0000.5,0005.17,0008.68,0004.72
2023-09-13 00:59:00,SystemResetWarning,0831.5,5.00,000.00,028.2,024.8,000.0,036.3,029.6,24.2,0000.3,0005.20,0008.71,0004.75
